LRSB Weather Reports


time (UTC)temp
C
wind
direction
speed
KPH
gust
KPH
rain 1hr
cm
rain 24hr
cm
rain mn
cm
humidity
%
barometer
mb
20260505193311 13 120 4.8 0.0 0.00 0.00 0.00 55 1013.0
20260505191811 15 250 9.7 0.0 0.00 0.00 0.00 51 1013.0
20260505190310 15 250 9.7 0.0 0.00 0.00 0.00 51 1013.0
20260505184811 16 250 11.3 0.0 0.00 0.00 0.00 48 1013.0
20260505183311 16 250 11.3 0.0 0.00 0.00 0.00 48 1013.0
20260505181811 13 260 11.3 0.0 0.00 0.00 0.00 59 1012.0
20260505180311 13 260 11.3 0.0 0.00 0.00 0.00 59 1012.0
20260505174808 21 260 4.8 0.0 0.00 0.00 0.00 33 1012.0
20260505173311 21 260 4.8 0.0 0.00 0.00 0.00 33 1012.0
20260505171811 23 360 8.0 0.0 0.00 0.00 0.00 29 1012.0
20260505170311 23 360 8.0 0.0 0.00 0.00 0.00 29 1012.0
20260505164811 25 350 8.0 0.0 0.00 0.00 0.00 19 1012.0
20260505163311 25 350 8.0 0.0 0.00 0.00 0.00 19 1012.0
20260505161811 25 3.2 0.0 0.00 0.00 0.00 19 1012.0
20260505160311 25 3.2 0.0 0.00 0.00 0.00 19 1012.0
20260505153311 26 4.8 0.0 0.00 0.00 0.00 20 1012.0
20260505151819 26 70 9.7 0.0 0.00 0.00 0.00 18 1012.0
20260505150311 26 70 9.7 0.0 0.00 0.00 0.00 18 1012.0
20260505140311 26 30 11.3 0.0 0.00 0.00 0.00 20 1013.0
20260505130311 26 9.7 0.0 0.00 0.00 0.00 21 1013.0
20260505124811 26 90 11.3 0.0 0.00 0.00 0.00 21 1014.0
20260505123311 26 90 11.3 0.0 0.00 0.00 0.00 21 1014.0
20260505121811 26 4.8 0.0 0.00 0.00 0.00 23 1014.0
20260505120316 25 30 9.7 0.0 0.00 0.00 0.00 21 1014.0
20260505114818 25 30 9.7 0.0 0.00 0.00 0.00 21 1014.0
20260505113341 25 30 9.7 0.0 0.00 0.00 0.00 21 1014.0
20260505111811 25 70 9.7 0.0 0.00 0.00 0.00 22 1015.0
20260505110311 25 70 9.7 0.0 0.00 0.00 0.00 22 1015.0
20260505101812 23 330 12.9 0.0 0.00 0.00 0.00 27 1016.0
20260505100311 23 330 12.9 0.0 0.00 0.00 0.00 27 1016.0
20260505094812 23 80 8.0 0.0 0.00 0.00 0.00 25 1016.0
20260505093311 23 80 8.0 0.0 0.00 0.00 0.00 25 1016.0
20260505091811 22 8.0 0.0 0.00 0.00 0.00 31 1016.0
20260505090311 22 8.0 0.0 0.00 0.00 0.00 31 1016.0
20260505084811 22 3.2 0.0 0.00 0.00 0.00 25 1016.0
20260505083311 22 3.2 0.0 0.00 0.00 0.00 25 1016.0
20260505081811 22 10 8.0 0.0 0.00 0.00 0.00 31 1017.0
20260505080311 22 10 8.0 0.0 0.00 0.00 0.00 31 1017.0
20260505074826 20 30 4.8 0.0 0.00 0.00 0.00 38 1017.0
20260505073311 20 30 4.8 0.0 0.00 0.00 0.00 38 1017.0
20260505071811 18 1.6 0.0 0.00 0.00 0.00 43 1017.0
20260505070311 18 1.6 0.0 0.00 0.00 0.00 43 1017.0
20260505064811 17 1.6 0.0 0.00 0.00 0.00 46 1017.0
20260505063311 17 1.6 0.0 0.00 0.00 0.00 46 1017.0
20260505061811 16 3.2 0.0 0.00 0.00 0.00 52 1017.0
20260505060311 16 3.2 0.0 0.00 0.00 0.00 52 1017.0
20260505054811 13 3.2 0.0 0.00 0.00 0.00 59 1017.0
20260505053311 13 3.2 0.0 0.00 0.00 0.00 59 1017.0
20260505051811 12 60 3.2 0.0 0.00 0.00 0.00 67 1017.0
20260505050311 12 60 3.2 0.0 0.00 0.00 0.00 67 1017.0
20260505040310 8 110 1.6 0.0 0.00 0.00 0.00 76 1017.0
20260505034811 7 90 3.2 0.0 0.00 0.00 0.00 81 1017.0
20260505033311 7 90 3.2 0.0 0.00 0.00 0.00 81 1017.0
20260505031811 7 3.2 0.0 0.00 0.00 0.00 76 1017.0
20260505030311 7 3.2 0.0 0.00 0.00 0.00 76 1017.0
20260505024811 7 70 4.8 0.0 0.00 0.00 0.00 76 1017.0
20260505023311 7 70 4.8 0.0 0.00 0.00 0.00 76 1017.0
20260505021811 8 60 4.8 0.0 0.00 0.00 0.00 76 1017.0
20260505020311 8 60 4.8 0.0 0.00 0.00 0.00 76 1017.0
20260505014810 10 60 4.8 0.0 0.00 0.00 0.00 71 1017.0
20260505013311 10 60 4.8 0.0 0.00 0.00 0.00 71 1017.0
20260505011811 10 50 4.8 0.0 0.00 0.00 0.00 71 1017.0
20260505010311 10 50 4.8 0.0 0.00 0.00 0.00 71 1017.0
20260505004811 10 3.2 0.0 0.00 0.00 0.00 71 1017.0
20260505003311 10 3.2 0.0 0.00 0.00 0.00 71 1017.0
20260505001811 11 110 8.0 0.0 0.00 0.00 0.00 67 1017.0
20260505000311 11 110 8.0 0.0 0.00 0.00 0.00 67 1017.0
20260504234811 11 120 4.8 0.0 0.00 0.00 0.00 67 1017.0
20260504233311 11 120 4.8 0.0 0.00 0.00 0.00 67 1017.0
20260504231811 11 250 8.0 0.0 0.00 0.00 0.00 62 1017.0
20260504230311 11 250 8.0 0.0 0.00 0.00 0.00 62 1017.0
20260504224811 11 180 4.8 0.0 0.00 0.00 0.00 67 1017.0
20260504223311 11 180 4.8 0.0 0.00 0.00 0.00 67 1017.0
20260504221834 12 260 17.7 0.0 0.00 0.00 0.00 59 1017.0
20260504220311 12 260 17.7 0.0 0.00 0.00 0.00 59 1017.0
20260504214811 11 250 8.0 0.0 0.00 0.00 0.00 67 1017.0
20260504213327 11 250 8.0 0.0 0.00 0.00 0.00 67 1017.0
20260504211810 11 250 11.3 0.0 0.00 0.00 0.00 67 1017.0
20260504210311 11 250 11.3 0.0 0.00 0.00 0.00 67 1017.0
20260504204811 12 260 14.5 0.0 0.00 0.00 0.00 63 1017.0
20260504203312 12 260 14.5 0.0 0.00 0.00 0.00 63 1017.0
20260504201810 12 260 14.5 0.0 0.00 0.00 0.00 59 1017.0
20260504200311 12 260 14.5 0.0 0.00 0.00 0.00 59 1017.0
20260504194811 12 250 14.5 0.0 0.00 0.00 0.00 59 1016.0